AirNav   ProFlight Series 2 Aviation Headset
 
 668 users online  

35MN Wipline Airport
Inver Grove Heights, Minnesota, USA

GOING TO INVER GROVE HEIGHTS?


FAA INFORMATION EFFECTIVE 13 AUGUST 2020

Location

FAA Identifier: 35MN
Lat/Long: 44-48-55.8790N 093-00-48.7690W
44-48.931317N 093-00.812817W
44.8155219,-93.0135469
(estimated)
Elevation: 687 ft. / 209 m (estimated)
Variation: 03E (1985)
From city: 2 miles SE of INVER GROVE HEIGHTS, MN
Time zone: UTC -5 (UTC -6 during Standard Time)
Zip code: 55077

Airport Operations

Airport use: Private use. Permission required prior to landing
Activation date: 02/1978
Control tower: no
ARTCC: MINNEAPOLIS CENTER
FSS: PRINCETON FLIGHT SERVICE STATION
Attendance: UNATNDD
Wind indicator: yes
Segmented circle: no

Airport Communications

WX AWOS-3 at SGS (2.6 nm N): 119.425 (651-457-8120)
WX ASOS at STP (7 nm N): 118.35 (651-312-8888)
WX ASOS at MSP (10 nm NW): 135.35 (612-713-4174)
WX AWOS-3 at 21D (13 nm NE): 120.075 (651-779-5949)
WX AWOS-3 at LVN (15 nm SW): 118.0 (952-469-5850)
WX ASOS at FCM (19 nm W): 124.9 (952-941-4156)

Nearby radio navigation aids

VOR radial/distance  VOR name  Freq  Var
MSPr115/10.7MINNEAPOLIS VOR/DME115.3002E
FGTr027/13.2FARMINGTON VORTAC115.7006E
FCMr091/18.3FLYING CLOUD VOR/DME117.7001E
GEPr136/25.0GOPHER VORTAC117.3006E
FOWr021/39.7HALFWAY VOR/DME111.2002E

 
NDB name  Hdg/Dist  Freq  Var  ID
HOPEY218/4.640003EPPI .--. .--. ..

Airport Services

Runway Information

Runway 3/21

Dimensions: 2300 x 150 ft. / 701 x 46 m
Surface: turf
RUNWAY 3  RUNWAY 21
Traffic pattern: leftleft

Airport Ownership and Management from official FAA records

Ownership: Privately-owned
Owner: ROBERT WIPLINGER
9100 RIVER ROAD
INVER GROVE HTS, MN 55075
Phone (612) 867-6160
Manager: ROBERT WIPLINGER
9100 RIVER ROAD
INVER GROVE HTS, MN 55075
Phone (612) 867-6160
CELL: 612-867-6160

Airport Operational Statistics

Aircraft based on the field: 5
Single engine airplanes: 5
    

Additional Remarks

FOR CD CTC MINNEAPOLIS ARTCC AT 651-463-5588.

Instrument Procedures

There are no published instrument procedures at 35MN.

Some nearby airports with instrument procedures:

KSGS - South St Paul Municipal Airport-Richard E Fleming Field (3 nm N)
KSTP - St Paul Downtown Airport Holman Field (7 nm N)
KMSP - Minneapolis-St Paul International/Wold-Chamberlain Airport (10 nm NW)
21D - Lake Elmo Airport (13 nm NE)
KLVN - Airlake Airport (15 nm SW)
KFCM - Flying Cloud Airport (19 nm W)
 
Loc | Ops | Rwys | IFR | FBO | Links
Com | Nav | Svcs | Stats | Notes
Area around 35MN (Wipline Airport)
 
Road maps at: MapQuest Bing Google
 
Aerial photo
No photo
 
Sectional chart

 
Airport distance calculator
Flying to Wipline Airport? Find the distance to fly.

From to 35MN

Sunrise and sunset
Times for 14-Aug-2020
 Local
(UTC-5)
 Zulu
(UTC)
Morning civil twilight05:4310:43
Sunrise06:1511:15
Sunset20:1801:18
Evening civil twilight20:5001:50

Current date and time
Zulu (UTC)  14-Aug-2020 11:13:03
Local (UTC-5)  14-Aug-2020 06:13:03
 
METAR
KSGS 
6nm W 
141055Z AUTO 00000KT 10SM CLR 22/19 A2999 RMK AO2 T02150194
KSTP 
7nm N 
141053Z AUTO 11005KT 10SM CLR 22/19 A2999 RMK AO2 SLP149 T02220189
KMSP 
10nm NW 
141053Z 09007KT 10SM BKN050 BKN250 22/19 A2999 RMK AO2 SLP150 T02220194
K21D 
13nm NE 
141055Z AUTO 08003KT 10SM CLR 20/18 A3002 RMK AO2
KLVN 
15nm SW 
141055Z AUTO 00000KT 10SM CLR 20/19 A2998 RMK AO2
KFCM 
19nm W 
141053Z 12005KT 10SM BKN049 22/19 A2997 RMK AO2 SLP143 T02220189
TAF
KMSP 
10nm NW 
141024Z 1410/1512 14008KT P6SM SCT045 BKN250 TEMPO 1412/1414 03012G20KT FM141700 16014G26KT P6SM SCT050 FM142300 19013G24KT P6SM SCT045 BKN080 TEMPO 1423/1501 27025G40KT 2SM TSRA BR SCT025CB OVC040 FM150100 28011KT P6SM SCT050 FM150500 30008KT P6SM SKC
NOTAMs
Click for the latest NOTAMs
NOTAMs are issued by the DoD/FAA and will open in a separate window not controlled by AirNav.

 

 
 

Would you like to see your business listed on this page?

 If your business provides an interesting product or service to pilots, flight crews, aircraft, or users of the Wipline Airport, you should consider listing it here.  To start the listing process, click on the button below
 
Add a business
 

Other Pages about Wipline Airport

Update a link
 
Copyright © AirNav, LLC. All rights reserved. Privacy Policy  Contact